SCP
2 2 2 1 1 1 1 1 1 1 1 1 0 0 0 0 0 0 0 1 1 0 0 0 0 0 0 0 1 1 0 0 1 1 1 0 0 0 0 0 0 0 0
2 2 2 2 1 1 1 1 1 1 1 1 0 0 0 0 0 0 0 0 1 0 0 0 0 0 0 0 1 1 0 0 1 1 1 1 0 0 0 0 0 0 0
2 2 2 2 1 1 1 1 1 1 1 1 0 0 0 0 0 0 0 0 0 0 0 0 0 0 0 0 0 0 0 0 1 1 1 1 0 0 0 0 0 0 0
2 2 2 1 1 1 1 1 1 1 1 0 0 0 0 0 0 0 0 0 0 0 0 0 0 0 0 0 0 0 0 0 1 1 1 1 1 0 0 0 0 0 0
1 1 1 1 1 1 1 1 1 1 0 0 0 0 0 0 0 0 0 0 0 0 0 0 0 0 0 0 0 0 0 1 1 1 1 1 1 1 0 0 0 0 0
1 1 1 1 1 1 1 1 0 0 0 0 0 0 0 0 0 0 0 0 0 0 0 0 0 0 0 0 0 0 0 1 1 1 1 1 1 1 0 0 0 0 0
1 1 1 1 1 1 1 1 0 0 0 0 0 0 0 0 0 0 0 0 0 0 0 0 0 0 0 0 0 0 0 1 1 1 1 1 1 1 1 0 0 0 0
1 1 1 1 1 1 1 1 0 0 0 0 0 0 0 0 0 0 0 0 0 0 0 0 0 0 0 0 0 0 0 0 1 1 1 1 1 1 1 1 0 0 0
0 0 0 0 0 0 0 0 0 0 0 0 0 0 0 0 0 0 0 0 0 0 0 0 0 0 0 0 0 0 0 0 0 0 0 0 1 1 1 1 1 0 0
0 0 0 0 0 0 0 0 0 0 0 0 0 0 0 0 0 0 0 0 0 0 0 0 0 0 0 0 0 0 0 0 0 0 0 0 0 0 1 1 1 1 1
0 0 0 0 0 0 0 0 0 0 0 0 0 0 0 0 0 0 0 0 0 0 0 0 0 0 0 0 0 0 0 0 0 0 0 0 0 0 1 1 1 1 1
0 0 0 0 0 1 1 1 1 1 1 1 1 0 0 0 0 0 0 0 0 0 0 0 0 0 0 0 0 0 0 0 0 0 0 0 0 0 0 1 1 1 1
0 0 0 0 0 0 0 1 1 1 1 1 1 1 1 0 0 0 0 0 0 0 0 0 0 0 0 0 0 0 0 0 0 0 0 0 0 0 0 0 0 1 1
0 0 0 0 0 0 0 0 1 1 1 1 1 1 1 1 1 0 0 0 0 0 0 0 0 0 0 0 0 0 0 0 0 0 0 0 0 0 0 0 0 0 0
0 0 0 0 0 0 0 0 0 0 1 1 1 1 1 1 1 1 1 0 0 0 0 0 0 0 0 0 0 0 0 0 0 0 0 0 0 0 0 0 0 0 0
0 0 0 0 0 0 0 0 0 0 0 0 1 1 1 1 1 1 1 1 1 0 0 0 0 0 0 0 0 0 0 0 0 0 0 0 0 0 0 0 0 0 0
0 0 0 0 0 0 0 0 0 0 0 0 0 0 0 1 1 1 1 1 1 1 0 0 0 0 0 0 0 0 0 0 0 0 0 0 0 0 0 0 0 0 0
0 0 0 0 0 0 0 0 0 0 0 0 0 0 0 0 1 1 1 1 1 1 1 1 0 0 0 0 0 0 0 0 0 0 0 0 0 0 0 0 0 0 0
0 0 0 0 0 0 0 0 0 0 0 0 0 0 0 0 0 0 1 1 1 1 1 1 1 1 0 0 0 0 0 0 0 0 0 0 0 0 0 0 0 0 0
0 0 0 0 0 0 0 0 0 0 0 0 0 0 0 0 0 0 0 0 1 1 1 1 1 1 1 0 0 0 0 0 0 0 0 0 0 0 0 0 0 0 0
0 0 0 0 0 0 0 0 0 0 0 0 0 0 0 0 0 0 0 0 0 0 0 1 1 1 1 0 0 0 0 0 0 0 0 0 0 0 0 0 0 0 0
0 0 0 0 0 0 0 0 0 0 0 0 0 0 0 0 0 0 0 0 0 0 0 0 1 1 1 1 0 0 0 0 0 0 0 0 0 0 0 0 0 0 0
0 0 0 0 0 0 0 0 0 0 0 0 0 0 0 0 0 0 0 0 0 0 0 0 0 1 1 1 1 0 0 0 0 0 0 0 0 0 0 0 0 0 0
0 0 0 0 0 0 0 0 0 0 0 0 0 0 0 0 0 0 0 0 0 0 0 0 0 0 0 1 1 0 0 0 0 0 0 0 0 0 0 0 0 0 0
0 0 0 0 0 0 0 0 0 0 0 0 0 0 0 0 0 0 0 0 0 0 0 0 0 0 0 0 0 0 0 0 0 0 0 0 0 0 0 0 0 0 0
0 0 0 0 0 0 0 0 0 0 0 0 0 0 0 0 0 0 0 0 0 0 0 0 0 0 0 0 0 0 0 0 0 0 0 0 0 0 0 0 0 0 0
Wind_Speed
7 7 6 6 7 6 7 7 8 9 9 10 10 11 11 11 10 9 6 12 14 15 16 16 17 17 16 17 17 18 19 19 18 18 18 18 17 17 16 16 15 14 13
7 7 7 7 7 7 6 7 9 8 8 8 10 11 11 11 11 11 9 9 14 15 15 16 16 17 17 16 16 17 17 18 19 18 18 18 18 17 17 17 17 16 15
8 7 7 7 6 6 7 7 9 7 8 9 10 11 10 10 10 10 10 8 9 14 16 15 15 16 17 17 16 16 16 17 18 18 18 18 18 18 17 17 18 17 17
9 7 6 7 6 6 6 6 7 7 7 7 7 8 8 7 10 10 10 9 8 8 13 16 14 14 16 17 17 17 16 17 17 18 18 19 19 18 18 18 18 17 17
9 8 6 6 6 5 6 7 5 6 6 7 7 7 8 8 8 9 10 10 9 8 8 11 14 14 15 16 16 16 16 16 16 17 18 18 18 18 17 18 18 18 18
7 6 6 8 7 6 5 5 6 5 6 6 7 7 7 7 7 8 9 9 8 10 10 9 9 12 16 15 14 16 16 16 16 17 18 18 17 17 17 18 18 18 18
7 7 6 6 6 6 6 7 7 7 7 5 6 7 7 7 7 6 7 7 8 8 8 8 8 7 8 16 15 14 15 17 17 18 18 18 18 17 18 18 18 18 18
5 6 5 5 6 5 6 7 7 6 6 5 6 5 5 6 6 6 5 6 6 6 7 8 7 7 8 6 9 15 15 17 18 18 18 17 17 17 18 18 19 19 19
3 5 6 6 6 6 6 7 7 8 7 6 6 5 5 4 3 5 5 4 4 4 5 5 7 7 8 7 7 13 15 14 16 18 17 16 16 16 17 18 18 18 18
3 4 5 6 6 6 6 7 8 7 7 6 5 5 5 4 4 3 6 5 5 5 5 5 6 6 7 7 6 5 9 11 13 15 15 16 16 16 17 17 18 18 18
2 3 4 4 5 6 7 7 6 8 7 7 6 5 6 5 6 5 3 4 4 4 4 5 5 5 5 6 5 5 6 7 9 10 11 12 14 15 16 16 17 17 17
1 2 3 3 4 4 5 6 7 9 8 8 6 6 6 6 6 6 5 5 4 3 3 3 4 3 3 4 3 4 2 4 6 7 8 9 10 12 14 14 15 16 16
2 2 3 3 3 3 4 5 6 8 9 9 9 7 7 7 5 5 6 5 4 3 4 4 3 2 2 1 1 2 2 3 4 6 6 7 8 9 10 11 13 13 14
4 2 3 3 4 4 4 4 5 7 7 8 10 9 6 7 6 6 6 6 5 5 5 4 3 2 1 1 4 3 2 3 2 3 4 5 5 6 7 7 8 9 9
6 5 5 5 4 4 4 4 5 5 6 7 7 8 8 7 6 6 6 6 7 6 5 5 4 4 2 2 2 1 3 7 5 4 3 3 3 4 4 4 5 5 6
9 8 8 7 7 6 6 5 5 5 5 6 6 7 7 6 6 6 6 6 7 7 6 3 3 3 2 2 3 3 5 7 7 6 6 5 5 4 4 3 2 3 5
11 11 11 10 9 9 8 7 7 6 7 7 7 7 8 8 6 6 6 7 7 7 7 5 3 3 4 3 4 3 4 4 6 8 8 8 7 6 5 4 3 1 1
13 14 13 13 12 11 10 10 10 9 8 9 8 8 8 7 8 7 6 8 7 7 8 8 5 5 5 5 5 4 4 4 6 10 10 10 9 8 7 6 5 3 2
14 15 14 14 14 13 12 11 11 10 10 9 9 9 8 8 9 7 8 8 7 7 8 7 7 4 4 5 6 5 6 5 6 8 10 11 10 10 9 8 7 6 5
15 15 15 15 15 15 14 13 12 11 11 10 10 9 9 9 10 9 8 8 7 7 7 8 7 6 5 7 6 6 5 5 5 6 7 8 9 10 10 9 9 9 8
15 15 15 15 15 14 14 14 13 13 12 12 11 11 11 10 8 7 7 7 7 7 7 7 8 7 7 7 8 6 7 6 5 4 6 5 5 5 6 8 9 10 10
15 14 15 15 16 14 12 13 13 13 11 12 12 11 11 11 11 11 10 9 9 9 9 8 8 9 9 10 8 8 8 7 5 5 5 5 4 5 5 6 9 10 11
14 14 14 15 15 15 11 13 14 13 13 12 12 11 10 10 12 12 13 14 13 14 12 10 10 10 9 10 11 12 11 9 6 8 7 5 4 5 6 8 10 10 11
13 12 13 14 13 13 12 14 15 15 14 13 13 12 12 11 10 10 11 11 12 13 13 13 12 11 9 7 10 11 10 8 8 6 6 5 5 5 6 7 10 11 11
12 11 11 12 13 12 12 14 15 13 13 15 14 13 13 13 9 8 11 11 11 11 11 12 12 10 7 5 6 8 10 10 8 5 4 5 6 6 6 7 9 11 11
12 11 11 11 12 12 11 14 16 11 12 12 12 12 12 12 8 12 12 12 12 11 10 10 11 11 10 10 11 11 11 12 10 6 7 7 8 7 6 5 7 8 9
Wind_Direction
237 238 242 244 249 244 236 239 246 247 245 243 241 237 238 237 239 237 224 189 201 215 224 226 224 223 220 217 216 214 213 213 211 210 211 212 213 211 208 206 205 204 203
242 241 240 241 247 249 253 252 249 248 249 248 246 243 241 242 238 236 240 212 204 213 221 225 225 222 219 217 216 214 214 216 214 211 211 213 214 213 212 209 208 206 205
248 246 249 246 247 249 247 247 254 251 247 245 245 246 242 241 242 238 241 242 223 210 213 220 223 220 219 218 217 214 213 214 215 213 213 214 214 214 214 213 211 209 206
247 243 243 246 247 248 246 244 245 246 248 251 252 252 249 241 242 240 238 233 236 232 208 209 219 222 221 221 219 217 214 212 211 212 213 216 215 214 216 216 214 211 209
249 245 241 244 238 237 243 251 241 250 253 255 253 242 245 243 242 243 244 242 235 237 240 200 206 220 224 225 224 220 214 211 209 211 213 215 216 216 217 218 216 213 211
251 251 241 235 233 232 235 239 248 244 260 259 262 258 250 248 242 240 242 237 231 230 232 235 215 213 215 222 224 221 215 211 209 211 213 215 217 217 217 219 218 216 214
251 245 244 235 232 234 238 233 233 232 239 243 252 249 236 233 238 239 235 239 227 228 232 231 237 236 211 210 218 221 219 216 211 213 213 214 216 215 216 218 218 218 216
270 254 250 247 236 239 240 238 230 244 236 223 247 256 236 202 210 219 219 224 232 225 226 225 231 232 248 228 205 209 219 220 218 216 215 214 212 212 215 216 217 217 216
287 275 259 252 243 242 236 235 228 230 237 223 231 253 260 239 182 183 208 217 219 233 234 228 229 228 235 241 229 202 209 217 222 221 218 214 211 212 214 216 218 217 217
302 272 263 253 247 247 248 239 227 228 235 231 209 233 270 318 273 194 187 190 202 226 245 254 248 233 233 237 230 228 202 214 223 226 224 219 214 213 215 216 217 217 216
323 297 280 264 252 251 247 248 235 234 230 237 231 214 212 219 247 264 214 191 204 210 219 241 249 250 242 242 239 221 181 208 223 229 231 226 219 216 214 217 219 219 217
323 329 304 293 276 269 257 247 241 232 240 242 246 236 225 222 219 230 236 226 227 217 227 246 246 238 240 246 237 79 153 212 219 223 227 227 222 217 214 216 220 223 223
300 305 305 297 286 278 272 263 250 248 238 236 236 238 238 242 241 235 243 239 237 231 215 218 202 215 228 247 105 68 179 206 215 217 219 220 219 216 216 218 223 228 228
290 282 265 270 274 272 266 260 261 255 249 243 241 241 242 241 236 232 235 240 235 226 208 208 185 169 161 155 70 281 132 116 148 186 199 204 207 208 208 209 215 222 226
262 247 244 247 251 256 266 268 261 258 260 251 248 242 241 241 239 237 234 237 245 245 222 180 194 150 157 103 88 55 78 85 85 100 123 137 145 160 174 190 201 214 226
258 253 246 241 237 234 235 243 255 254 254 256 255 250 245 244 240 237 233 231 238 253 252 193 188 168 143 136 113 93 91 100 84 85 95 103 107 112 122 144 172 207 228
257 250 245 242 238 234 229 227 237 238 242 249 251 250 250 249 243 238 233 229 227 234 242 235 207 170 176 180 142 130 121 110 96 84 89 91 92 92 91 93 98 119 210
257 251 247 243 242 238 232 230 233 231 230 235 237 240 245 247 244 244 239 233 226 227 238 239 220 198 187 171 152 143 128 110 100 90 88 86 85 84 82 79 74 69 63
260 257 251 246 243 241 236 233 235 235 233 233 231 230 236 238 241 239 237 238 231 223 229 237 229 210 183 164 151 139 125 117 110 109 98 90 83 81 77 74 70 67 66
262 256 250 246 243 241 237 233 232 233 235 234 233 231 230 233 234 238 237 238 240 238 228 232 231 212 190 171 166 157 146 141 127 116 95 94 95 89 80 75 75 74 72
265 259 252 247 242 238 235 232 232 232 232 234 232 229 229 228 233 235 245 241 236 235 233 231 228 217 199 180 183 174 156 141 124 135 126 120 122 109 99 90 80 76 77
266 263 257 250 243 239 225 214 228 238 234 235 236 232 229 217 219 220 235 245 248 243 237 236 235 226 210 197 184 173 159 159 153 160 141 118 111 98 86 79 74 79 79
268 261 255 251 249 244 222 201 210 234 238 235 235 233 235 225 208 219 218 223 233 238 242 248 249 243 225 203 188 181 181 181 157 154 146 121 115 99 90 80 80 82 84
272 267 262 255 250 243 213 202 203 224 237 236 234 233 235 241 225 221 228 229 233 229 226 231 242 247 247 224 197 190 174 149 126 142 148 127 131 115 103 96 87 85 88
271 264 258 254 251 244 213 200 200 224 229 232 232 232 232 234 218 200 229 237 239 239 227 225 236 246 255 239 199 173 161 154 145 148 155 131 139 127 116 111 101 93 90
271 267 258 249 247 243 216 199 201 223 226 226 225 229 225 232 212 190 225 235 238 239 237 219 218 224 225 211 193 186 175 169 154 151 168 150 153 147 128 127 133 134 116